SCOUT G-1 DEB

基本信息
目录编号:
16020
目录名称:
SCOUT G-1 DEB
国际标识:
1985-066F
轨道中心:
EARTH
物体状态:
在轨
发射日期:
1985-08-03 UTC
轨道信息
数据来源: 国际轨道数据
星历时间: 2026-09-09T15:24:22+0800
半长轴: 7483.461km
偏心率: 0.0141384
轨道倾角: 90.226°
近地点辐角: 65.583°
升交点赤经: 13.494°
平近点角: 324.190°
近地点: 999.519km
远地点: 1211.129km
周期: 107.378分钟
每日圈数: 13.410625
详细信息
发射场:
AFWTR
轨道高度:
LEO
数据来源:
AOE Integration Group
参考系:
TEME
时间系统:
UTC
历元类型:
SGP4
2D轨道图
3D轨道图
轨道高度分析图
轨道倾角分析图
轨道综合分析图
查看轨道综合分析图